Weather History for Lancaster, OH

Change the Weather History Date:

Wednesday, May 22, 2013

  Actual Average Record
Temperature  
Mean Temperature 72 °F -  
Max Temperature 80 °F 74 °F 92 °F (1941)
Min Temperature 64 °F 50 °F 30 °F (2002)
Cooling Degree Days 6    
Growing Degree Days 22 (Base 50)    
Moisture  
Dew Point 60 °F    
Average Humidity 69    
Maximum Humidity 90    
Minimum Humidity 54    
Precipitation  
Precipitation 0.05 in - - ()
Sea Level Pressure  
Sea Level Pressure 29.82 in    
Wind  
Wind Speed 8 mph (SSW)    
Max Wind Speed 17 mph    
Max Gust Speed 23 mph    
Visibility 10 miles    
Events Rain    
Averages and records for this station are not official NWS values.
T = Trace of Precipitation, MM = Missing Value Source: NWS Daily Summary

Daily Weather History Graph

Daily Weather History Graph

Search for Another Location

Airport:

Trip Planner

Search our weather history database for the weather conditions in past years. The results will help you decide how hot, cold, wet, or windy it might be!

Date:

Astronomy

May. 22, 2013 Rise Set
Actual Time 6:10 AM EDT 8:45 PM EDT
Civil Twilight 5:38 AM EDT 9:16 PM EDT
Nautical Twilight 5:00 AM EDT 9:55 PM EDT
Astronomical Twilight 4:16 AM EDT 10:38 PM EDT
Moon 6:06 PM EDT (5/22) 4:12 AM EDT (5/22)
Length of Visible Light 15h 37m
Length of Day
14h 34m
Waxing Gibbous, 91% of the Moon is Illuminated
May 22
Waxing Gibbous
May 25
Full
May 31
Last Quarter
Jun 8
New
Jun 16
First Quarter

Hourly Weather History & Observations

Time (EDT) Temp. Dew Point Humidity Pressure Visibility Wind Dir Wind Speed Gust Speed Precip Events Conditions
12:53 AM 71.1 °F 59.0 °F 66% 29.86 in 10.0 mi SSW 6.9 mph - N/A   Clear
1:53 AM 69.1 °F 59.0 °F 70% 29.86 in 10.0 mi SSW 8.1 mph - N/A   Scattered Clouds
2:53 AM 68.0 °F 59.0 °F 73% 29.84 in 10.0 mi SSW 6.9 mph - N/A   Overcast
3:53 AM 66.0 °F 59.0 °F 78% 29.83 in 10.0 mi South 4.6 mph - N/A   Clear
4:53 AM 64.0 °F 57.9 °F 80% 29.82 in 10.0 mi SE 4.6 mph - N/A   Clear
5:53 AM 64.0 °F 57.9 °F 80% 29.83 in 10.0 mi SSE 5.8 mph - N/A   Clear
6:53 AM 64.0 °F 59.0 °F 84% 29.83 in 10.0 mi SSE 5.8 mph - N/A   Partly Cloudy
7:53 AM 66.9 °F 61.0 °F 81% 29.87 in 10.0 mi SSE 3.5 mph - N/A   Clear
8:53 AM 71.1 °F 61.0 °F 70% 29.86 in 10.0 mi SW 6.9 mph - N/A   Clear
9:53 AM 73.0 °F 62.1 °F 68% 29.84 in 10.0 mi SSW 5.8 mph - N/A   Clear
10:53 AM 77.0 °F 63.0 °F 62% 29.84 in 10.0 mi SSW 9.2 mph - N/A   Clear
11:53 AM 78.1 °F 62.1 °F 58% 29.84 in 10.0 mi SW 12.7 mph 20.7 mph N/A   Clear
12:53 PM 77.0 °F 63.0 °F 62% 29.82 in 10.0 mi SW 9.2 mph 17.3 mph 0.00 in   Scattered Clouds
1:53 PM 79.0 °F 62.1 °F 56% 29.81 in 10.0 mi SW 13.8 mph 23.0 mph N/A   Partly Cloudy
2:53 PM 79.0 °F 61.0 °F 54% 29.80 in 10.0 mi SW 11.5 mph 20.7 mph N/A   Clear
3:53 PM 75.9 °F 60.1 °F 58% 29.80 in 10.0 mi SW 17.3 mph 21.9 mph 0.00 in   Overcast
4:53 PM 75.0 °F 64.0 °F 69% 29.77 in 10.0 mi SSW 11.5 mph 18.4 mph 0.01 in   Mostly Cloudy
5:53 PM 75.9 °F 61.0 °F 60% 29.76 in 10.0 mi SW 15.0 mph 20.7 mph N/A   Clear
6:53 PM 75.0 °F 60.1 °F 60% 29.77 in 10.0 mi SW 10.4 mph - N/A   Partly Cloudy
7:53 PM 75.0 °F 60.1 °F 60% 29.77 in 10.0 mi SSW 10.4 mph - N/A   Partly Cloudy
8:53 PM 73.0 °F 59.0 °F 61% 29.78 in 10.0 mi SSW 8.1 mph - 0.00 in   Mostly Cloudy
9:53 PM 72.0 °F 59.0 °F 64% 29.78 in 10.0 mi SW 5.8 mph - N/A   Mostly Cloudy
10:53 PM 64.9 °F 61.0 °F 87% 29.81 in 6.0 mi SW 5.8 mph - 0.04 in Rain Rain
11:53 PM 64.0 °F 61.0 °F 90% 29.80 in 10.0 mi South 3.5 mph - 0.00 in   Partly Cloudy